Погода в Басани

Украина / Запорожская область     47°23′35″N   36°09′39″E
темп.,
°C
ветер,
м/с
пор.,
м/с
влажн.,
%
обл.,
%
осадки,
мм/ч
давл.,
гПа
погр.,
м
15 августа, пн
пн1500:00+29всв8162235 0.0 1005666
03:00+26всв7153099 0.1 1006481
06:00+25в61438100 0.5 1006431
09:00+29вюв9122872 1.0 1006797
12:00+34вюв10132092 0.1 10061957
15:00+36юв89175 0.1 10052663
18:00+35юв68214 0.1 10042479
21:00+27ююз41042100 0.1 1006193
16 августа, вт
вт1600:00+24ссв346987 0.0 100794
03:00+23всв2270100 0.1 100644
06:00+21зюз5886100 2.3 1008308
09:00+24в47670 5.4 1009805
12:00+30ююв454227 0.2 10091795
15:00+32зюз453499 0.2 10082720
18:00+31зюз443755 0.0 10081988
21:00+25ююз36575 0.0 1010123
17 августа, ср
ср1700:00+22ююз35683 0.0 1010112
03:00+21з2380100 0.0 101049
06:00+22з2271100 0.0 101022
09:00+27зсз22511 0.0 1010625
12:00+31юз33370 0.0 10092041
15:00+33зюз432926 0.0 10092875
18:00+33зюз33272 0.0 10082507
21:00+25з48521 0.2 1010176
18 августа, чт
чт1800:00+21с23720 0.0 100959
03:00+20ссв22790 0.0 100921
06:00+20св11755 0.0 100913
09:00+27ссз0050100 0.0 1009360
12:00+31зюз3337100 0.0 10081621
15:00+34зюз432986 0.0 10073170
18:00+33ююз222839 0.0 10072438
21:00+24сз576233 1.1 1009234
19 августа, пт
пт1900:00+22вюв336613 0.6 100836
03:00+21зюз11685 0.7 100811
06:00+20всв22765 1.1 100922
09:00+26вюв11510 1.1 1009395
12:00+31юз23360 0.0 10081837
15:00+31ю2338100 0.3 10081020
18:00+30юз563813 0.3 1008849
21:00+24ссз22613 0.3 100937